Hourly Data Report for October 03, 2017

All times are specified in Local Standard Time (LST). Add 1 hour to adjust for Daylight Saving Time where and when it is observed.

SANDSPIT
BRITISH COLUMBIA

53°15'15.000" N
131°48'50.000" W
6.40 m
1057052
71111
YZP

Download Data

Hourly Data (October 2017)
Hourly Data Report for October 3, 2017
Temp Definition
°C
Dew Point Temp Definition
°C
Rel Hum Definition
%
Wind Dir Definition
10's deg

Wind Spd Definition
km/h
Visibility Definition
km
Stn Press Definition
kPa
Hmdx Definition


Wind Chill Definition


Weather Definition


TIME
00:00 Legend Double Dagger 6.4 4.7 89 17 5 16.1 102.65     LegendNANA
01:00 Legend Double Dagger 8.3 5.6 83 24 9 16.1 102.68     LegendNANA
02:00 Legend Double Dagger 8.5 5.4 81 26 8 16.1 102.68     LegendNANA
03:00 Legend Double Dagger 8.2 3.0 70 24 5 16.1 102.63     LegendNANA
04:00 Legend Double Dagger 6.7 4.2 84 15 8 16.1 102.60     LegendNANA
05:00 Legend Double Dagger 7.1 5.1 87 27 8 16.1 102.60     LegendNANA
06:00 Legend Double Dagger 7.8 5.3 84 26 8 16.1 102.58     LegendNANA
07:00 Legend Double Dagger 7.4 5.3 86 26 9 16.1 102.57     LegendNANA
08:00 Legend Double Dagger 8.9 6.0 82 26 4 16.1 102.61     LegendNANA
09:00 Legend Double Dagger 9.8 6.8 81 25 5 16.1 102.61     LegendNANA
10:00 Legend Double Dagger 11.5 6.4 71 10 8 16.1 102.58     LegendNANA
11:00 Legend Double Dagger 13.0 7.0 67 14 15 16.1 102.57     LegendNANA
12:00 Legend Double Dagger 13.8 8.6 70 14 18 16.1 102.54     LegendNANA
13:00 Legend Double Dagger 14.0 9.0 72 14 22 16.1 102.54     LegendNANA
14:00 Legend Double Dagger 14.3 10.6 78 14 22 16.1 102.51     LegendNANA
15:00 Legend Double Dagger 13.9 10.6 80 13 30 16.1 102.47     LegendNANA
16:00 Legend Double Dagger 13.6 10.8 83 14 30 16.1 102.42     LegendNANA
17:00 Legend Double Dagger 13.2 10.8 85 15 30 16.1 102.39     LegendNANA
18:00 Legend Double Dagger 12.4 10.5 88 14 32 16.1 102.36     LegendNANA
19:00 Legend Double Dagger 11.8 10.8 93 15 26 16.1 102.33     LegendNANA
20:00 Legend Double Dagger 8.9 8.2 95 18 9 16.1 102.33     LegendNANA
21:00 Legend Double Dagger 10.2 7.6 84 16 8 16.1 102.32     LegendNANA
22:00 Legend Double Dagger 8.0 6.3 89 15 4 16.1 102.31     LegendNANA
23:00 Legend Double Dagger 7.7 6.0 89 25 4 16.1 102.30     LegendNANA

Notes on Data Quality.

Legend

  • E = Estimated
  • M = Missing
  • NA = Not Available
  • ‡ = Partner data that is not subject to review by the National Climate Archives
Date modified: